MEASAT-3B

Last updated on Sun Apr 12 2026 00:02:53 GMT+0000 (Coordinated Universal Time)

1 40147U 14054B 26101.46850309 -.00000240 00000+0 00000+0 0 9990 2 40147 0.0477 54.4296 0003291 346.4121 59.0087 1.00273288 42244
UTC large
Height (km)
Speed (km/s)
/
Latitude / Longitude
Inclination (degrees)
Orbital Period (minutes)
Azimuth
Elevation
Range (km)
Doppler Factor

Next 0 passes for location: London (51.5072 / 0.1276)

Sorry there are no passes over London.
MEASAT-3B